{"data":{"norad_id":56456,"intl_designator":"2023-064J","name":"STARLINK-5995","alt_names":[],"object_type":"PAYLOAD","status":"ACTIVE","operator":null,"country":"US","launch_date":"2023-05-10","launch_site_code":"AFWTR","launch_vehicle":null,"mission":null,"orbit_class":"UNKNOWN","rcs_meters":null,"size_class":null,"mass_kg":null,"dimensions":null,"purposes":["comms"],"wikipedia_slug":null,"has_3d_model":false,"image_url":null,"decayed_at":null,"tle_current":{"epoch":"2026-05-25T04:30:31.210272Z","epoch_age_seconds":52150,"freshness":"FRESH","line1":"1 56456U 23064J   26145.18786123 -.00000550  00000+0 -38311-4 0  9996","line2":"2 56456  70.0016 311.6186 0001962 271.3873  88.7061 14.98318556166707","mean_motion":14.98318556,"eccentricity":0.0001962,"inclination_deg":70.0016,"raan_deg":311.6186,"arg_perigee_deg":271.3873,"mean_anomaly_deg":88.7061,"bstar":-3.8311e-5,"rev_number":16670,"period_min":96.107733180874,"perigee_km":570.72764600696,"apogee_km":573.45491558434,"semimajor_km":6950.2282807956,"source":"CELESTRAK","updated_at":"2026-05-25T13:38:18.067623Z"}}}